AAL1687 KCLT-KPHL

Flight info

Callsign AAL1687
Flight time 1h 12m
Altitude 35000
Route KILNS5 AUDII BBDOL PAATS4
Aircraft A320/M-SDE3FGHIRWY/LB1

Departure

Time 2026-05-04 14:40
Airport Charlotte Douglas International Airport (KCLT)

Arrival

Time 2026-05-04 15:52
Airport Philadelphia International Airport (KPHL)
Time Latitude Longitude Altitude Speed Heading
2026-05-04 14:00 35.22041 -80.94895 733 ft 0 kts 129°
2026-05-04 14:29 35.22066 -80.94933 732 ft 4 kts 129°
2026-05-04 14:30 35.22081 -80.94955 731 ft 4 kts 140°
2026-05-04 14:30 35.22102 -80.94967 732 ft 4 kts 197°
2026-05-04 14:30 35.22124 -80.94917 733 ft 4 kts 266°
2026-05-04 14:31 35.22125 -80.94895 733 ft 0 kts 266°
2026-05-04 14:36 35.22124 -80.94918 733 ft 9 kts 266°
2026-05-04 14:36 35.22123 -80.95028 732 ft 16 kts 286°
2026-05-04 14:36 35.22235 -80.95075 734 ft 21 kts 357°
2026-05-04 14:36 35.22402 -80.95089 733 ft 26 kts 355°
2026-05-04 14:37 35.22570 -80.95104 733 ft 22 kts 355°
2026-05-04 14:37 35.22690 -80.95114 733 ft 13 kts 354°
2026-05-04 14:37 35.22732 -80.95189 735 ft 8 kts 265°
2026-05-04 14:37 35.22732 -80.95197 735 ft 0 kts 265°
2026-05-04 14:38 35.22730 -80.95218 736 ft 8 kts 265°
2026-05-04 14:38 35.22725 -80.95292 740 ft 9 kts 260°
2026-05-04 14:38 35.22665 -80.95313 739 ft 10 kts 174°
2026-05-04 14:39 35.22551 -80.95303 741 ft 39 kts 176°
2026-05-04 14:39 35.22046 -80.95260 742 ft 103 kts 176°
2026-05-04 14:39 35.21153 -80.95183 737 ft 152 kts 176°
2026-05-04 14:40 35.18866 -80.94941 1587 ft 177 kts 175°
2026-05-04 14:40 35.17602 -80.94764 2098 ft 187 kts 176°
2026-05-04 14:40 35.16261 -80.94583 2534 ft 202 kts 175°
2026-05-04 14:40 35.14804 -80.94379 2967 ft 221 kts 178°
2026-05-04 14:41 35.13214 -80.93960 3299 ft 250 kts 155°
2026-05-04 14:41 35.11933 -80.92421 3810 ft 272 kts 116°
2026-05-04 14:41 35.12271 -80.87894 5418 ft 285 kts 60°
2026-05-04 14:42 35.14409 -80.83782 7109 ft 291 kts 54°
2026-05-04 14:42 35.15573 -80.81734 7934 ft 294 kts 53°
2026-05-04 14:42 35.16740 -80.79659 8715 ft 298 kts 53°
2026-05-04 14:43 35.17891 -80.77570 9486 ft 302 kts 52°
2026-05-04 14:43 35.19057 -80.75410 10230 ft 307 kts 52°
2026-05-04 14:43 35.20262 -80.73160 10464 ft 330 kts 53°
2026-05-04 14:43 35.21565 -80.70708 10835 ft 345 kts 53°
2026-05-04 14:44 35.22855 -80.68253 11465 ft 350 kts 53°
2026-05-04 14:44 35.24173 -80.65732 12151 ft 353 kts 53°
2026-05-04 14:44 35.25517 -80.63156 12845 ft 356 kts 53°
2026-05-04 14:44 35.26837 -80.60621 13504 ft 359 kts 53°
2026-05-04 14:45 35.28184 -80.58035 14159 ft 362 kts 53°
2026-05-04 14:45 35.29564 -80.55384 14752 ft 366 kts 53°
2026-05-04 14:45 35.30920 -80.52781 15318 ft 370 kts 53°
2026-05-04 14:45 35.32313 -80.50100 15849 ft 375 kts 55°
2026-05-04 14:46 35.33474 -80.47207 16394 ft 384 kts 65°
2026-05-04 14:46 35.34416 -80.44130 16945 ft 388 kts 66°
2026-05-04 14:46 35.35362 -80.41022 17528 ft 391 kts 66°
2026-05-04 14:46 35.36315 -80.37877 18095 ft 395 kts 66°
2026-05-04 14:47 35.37275 -80.34702 18648 ft 400 kts 66°
2026-05-04 14:47 35.38248 -80.31484 19123 ft 404 kts 66°
2026-05-04 14:47 35.39227 -80.28246 19645 ft 408 kts 66°
2026-05-04 14:47 35.40216 -80.24975 20171 ft 411 kts 66°
2026-05-04 14:48 35.41213 -80.21672 20692 ft 414 kts 66°
2026-05-04 14:48 35.42215 -80.18348 21200 ft 418 kts 66°
2026-05-04 14:48 35.43225 -80.14998 21695 ft 421 kts 65°
2026-05-04 14:48 35.44253 -80.11620 22179 ft 424 kts 65°
2026-05-04 14:49 35.45297 -80.08223 22658 ft 428 kts 65°
2026-05-04 14:49 35.46350 -80.04797 23153 ft 431 kts 65°
2026-05-04 14:49 35.47410 -80.01335 23649 ft 434 kts 65°
2026-05-04 14:49 35.48477 -79.97844 24043 ft 438 kts 65°
2026-05-04 14:50 35.49550 -79.94330 24424 ft 441 kts 65°
2026-05-04 14:50 35.50262 -79.91993 24683 ft 443 kts 65°
2026-05-04 14:50 35.51692 -79.87272 25184 ft 447 kts 65°
2026-05-04 14:50 35.52778 -79.83681 25550 ft 450 kts 65°
2026-05-04 14:51 35.53875 -79.80063 25915 ft 453 kts 65°
2026-05-04 14:51 35.55000 -79.76429 26249 ft 457 kts 64°
2026-05-04 14:51 35.56146 -79.72781 26577 ft 460 kts 64°
2026-05-04 14:51 35.56929 -79.70301 26814 ft 462 kts 64°
2026-05-04 14:52 35.58095 -79.66602 27137 ft 465 kts 64°
2026-05-04 14:52 35.59266 -79.62882 27474 ft 468 kts 64°
2026-05-04 14:52 35.60439 -79.59142 27799 ft 471 kts 64°
2026-05-04 14:52 35.61613 -79.55369 28137 ft 474 kts 64°
2026-05-04 14:53 35.62772 -79.51620 28457 ft 477 kts 64°
2026-05-04 14:53 35.63967 -79.47751 28789 ft 480 kts 64°
2026-05-04 14:53 35.65157 -79.43903 29113 ft 482 kts 64°
2026-05-04 14:53 35.66353 -79.40035 29413 ft 485 kts 64°
2026-05-04 14:54 35.67556 -79.36146 29724 ft 488 kts 64°
2026-05-04 14:54 35.68843 -79.32271 30043 ft 488 kts 58°
2026-05-04 14:54 35.70501 -79.28721 30322 ft 483 kts 49°
2026-05-04 14:54 35.72568 -79.25496 30587 ft 477 kts 40°
2026-05-04 14:55 35.74959 -79.22706 30858 ft 470 kts 31°
2026-05-04 14:55 35.77555 -79.20308 31289 ft 465 kts 28°
2026-05-04 14:55 35.80160 -79.17942 31721 ft 464 kts 28°
2026-05-04 14:55 35.82746 -79.15578 32133 ft 463 kts 28°
2026-05-04 14:56 35.85328 -79.13205 32528 ft 462 kts 28°
2026-05-04 14:56 35.87899 -79.10836 32931 ft 462 kts 28°
2026-05-04 14:56 35.90473 -79.08461 33324 ft 461 kts 28°
2026-05-04 14:56 35.93036 -79.06098 33719 ft 460 kts 27°
2026-05-04 14:57 35.95601 -79.03737 34095 ft 460 kts 27°
2026-05-04 14:57 35.98170 -79.01375 34391 ft 460 kts 27°
2026-05-04 14:57 36.00748 -78.99009 34712 ft 461 kts 27°
2026-05-04 14:57 36.03320 -78.96648 34995 ft 461 kts 27°
2026-05-04 14:58 36.08459 -78.91905 35115 ft 460 kts 27°
2026-05-04 14:58 36.13573 -78.87170 35113 ft 459 kts 27°
2026-05-04 14:59 36.18686 -78.82431 35115 ft 459 kts 27°
2026-05-04 14:59 36.24078 -78.78455 35122 ft 447 kts 18°
2026-05-04 15:00 36.26820 -78.76654 35107 ft 446 kts 18°
2026-05-04 15:00 36.32275 -78.73060 35102 ft 447 kts 18°
2026-05-04 15:01 36.40520 -78.67609 35117 ft 448 kts 18°
2026-05-04 15:01 36.46021 -78.63969 35143 ft 448 kts 19°
2026-05-04 15:02 36.51527 -78.60323 35132 ft 448 kts 19°
2026-05-04 15:02 36.57030 -78.56667 35118 ft 448 kts 19°
2026-05-04 15:03 36.62528 -78.53003 35104 ft 448 kts 19°
2026-05-04 15:03 36.68027 -78.49333 35143 ft 448 kts 20°
2026-05-04 15:04 36.73497 -78.45678 35109 ft 445 kts 20°
2026-05-04 15:04 36.78948 -78.42037 35107 ft 445 kts 20°
2026-05-04 15:05 36.84403 -78.38384 35106 ft 445 kts 20°
2026-05-04 15:05 36.89851 -78.34725 35104 ft 445 kts 20°
2026-05-04 15:06 36.95303 -78.31059 35119 ft 444 kts 20°
2026-05-04 15:07 37.03437 -78.25591 35098 ft 444 kts 20°
2026-05-04 15:07 37.08872 -78.21923 35093 ft 443 kts 20°
2026-05-04 15:08 37.14305 -78.18248 35117 ft 443 kts 21°
2026-05-04 15:08 37.19734 -78.14579 35104 ft 443 kts 21°
2026-05-04 15:09 37.25156 -78.10894 35095 ft 443 kts 21°
2026-05-04 15:09 37.30576 -78.07207 35088 ft 443 kts 21°
2026-05-04 15:10 37.38704 -78.01682 35099 ft 443 kts 21°
2026-05-04 15:11 37.46828 -77.96146 35093 ft 442 kts 21°
2026-05-04 15:11 37.52230 -77.92455 35096 ft 442 kts 21°
2026-05-04 15:12 37.57633 -77.88753 35117 ft 442 kts 21°
2026-05-04 15:12 37.62991 -77.85060 35111 ft 443 kts 24°
2026-05-04 15:13 37.68073 -77.80439 35099 ft 448 kts 30°
2026-05-04 15:13 37.73032 -77.75738 35091 ft 449 kts 30°
2026-05-04 15:14 37.78029 -77.71002 35085 ft 449 kts 30°
2026-05-04 15:14 37.83015 -77.66260 35085 ft 449 kts 30°
2026-05-04 15:15 37.88002 -77.61480 35083 ft 449 kts 30°
2026-05-04 15:15 37.92979 -77.56690 35089 ft 449 kts 30°
2026-05-04 15:16 38.00450 -77.49500 35087 ft 450 kts 30°
2026-05-04 15:17 38.07932 -77.42296 35066 ft 449 kts 29°
2026-05-04 15:17 38.15665 -77.35660 35057 ft 446 kts 26°
2026-05-04 15:18 38.20854 -77.31408 35084 ft 446 kts 26°
2026-05-04 15:19 38.28615 -77.24855 35069 ft 446 kts 27°
2026-05-04 15:19 38.36347 -77.18237 35066 ft 447 kts 27°
2026-05-04 15:20 38.41132 -77.13063 35086 ft 457 kts 39°
2026-05-04 15:20 38.45574 -77.07256 35078 ft 457 kts 39°
2026-05-04 15:21 38.50018 -77.01458 35058 ft 457 kts 39°
2026-05-04 15:22 38.56801 -76.92871 35037 ft 458 kts 39°
2026-05-04 15:22 38.63460 -76.84071 35077 ft 459 kts 40°
2026-05-04 15:23 38.67830 -76.78127 35046 ft 461 kts 44°
2026-05-04 15:23 38.71163 -76.71027 35044 ft 474 kts 65°
2026-05-04 15:24 38.74716 -76.54682 34783 ft 471 kts 71°
2026-05-04 15:25 38.75548 -76.50652 34434 ft 466 kts 71°
2026-05-04 15:25 38.76375 -76.46661 34058 ft 462 kts 71°
2026-05-04 15:25 38.77198 -76.42696 33611 ft 458 kts 71°
2026-05-04 15:26 38.78819 -76.34876 32789 ft 450 kts 71°
2026-05-04 15:26 38.79617 -76.31018 32384 ft 446 kts 71°
2026-05-04 15:26 38.81181 -76.23403 31605 ft 438 kts 71°
2026-05-04 15:27 38.81954 -76.19641 31229 ft 434 kts 71°
2026-05-04 15:27 38.83473 -76.12207 30497 ft 428 kts 71°
2026-05-04 15:28 38.84965 -76.04856 29719 ft 423 kts 71°
2026-05-04 15:28 38.85706 -76.01221 29326 ft 420 kts 71°
2026-05-04 15:28 38.87171 -75.94006 28570 ft 415 kts 71°
2026-05-04 15:29 38.87881 -75.90486 28208 ft 412 kts 71°
2026-05-04 15:30 38.94010 -75.79230 26733 ft 375 kts 30°
2026-05-04 15:30 39.00279 -75.73338 25594 ft 369 kts 30°
2026-05-04 15:31 39.04422 -75.69515 24832 ft 361 kts 24°
2026-05-04 15:31 39.06672 -75.68196 24452 ft 350 kts 12°
2026-05-04 15:32 39.13702 -75.66977 23261 ft 336 kts 359°
2026-05-04 15:32 39.18311 -75.66471 22441 ft 332 kts 359°
2026-05-04 15:33 39.22894 -75.65970 21599 ft 329 kts 359°
2026-05-04 15:34 39.29595 -75.64256 20383 ft 337 kts 22°
2026-05-04 15:34 39.31582 -75.62626 19989 ft 340 kts 28°
2026-05-04 15:34 39.35485 -75.59217 19241 ft 337 kts 28°
2026-05-04 15:35 39.38455 -75.55931 18615 ft 344 kts 47°
2026-05-04 15:35 39.39717 -75.53289 18231 ft 349 kts 63°
2026-05-04 15:35 39.40610 -75.50371 17807 ft 348 kts 66°
2026-05-04 15:36 39.42337 -75.44574 16681 ft 342 kts 66°
2026-05-04 15:36 39.43188 -75.41718 16143 ft 339 kts 66°
2026-05-04 15:36 39.44036 -75.38884 15623 ft 336 kts 66°
2026-05-04 15:37 39.44878 -75.36075 15122 ft 333 kts 66°
2026-05-04 15:37 39.45783 -75.33341 14625 ft 327 kts 57°
2026-05-04 15:37 39.47066 -75.30958 14146 ft 319 kts 44°
2026-05-04 15:37 39.48690 -75.29054 13644 ft 311 kts 30°
2026-05-04 15:38 39.50488 -75.27521 13070 ft 308 kts 28°
2026-05-04 15:38 39.52276 -75.26003 12514 ft 307 kts 29°
2026-05-04 15:38 39.54052 -75.24484 12000 ft 305 kts 29°
2026-05-04 15:38 39.55816 -75.22969 11488 ft 303 kts 29°
2026-05-04 15:39 39.57566 -75.21461 10982 ft 300 kts 29°
2026-05-04 15:39 39.59302 -75.19969 10488 ft 299 kts 29°
2026-05-04 15:39 39.62745 -75.17012 9477 ft 295 kts 30°
2026-05-04 15:40 39.64450 -75.15547 8933 ft 293 kts 30°
2026-05-04 15:40 39.66152 -75.14087 8417 ft 292 kts 30°
2026-05-04 15:40 39.67817 -75.12657 7913 ft 291 kts 30°
2026-05-04 15:40 39.69510 -75.11206 7542 ft 291 kts 30°
2026-05-04 15:41 39.71197 -75.09759 7236 ft 290 kts 30°
2026-05-04 15:41 39.72854 -75.08257 6901 ft 291 kts 37°
2026-05-04 15:41 39.74281 -75.06380 6591 ft 292 kts 46°
2026-05-04 15:41 39.75651 -75.04423 6200 ft 295 kts 45°
2026-05-04 15:42 39.77036 -75.02456 5850 ft 295 kts 45°
2026-05-04 15:42 39.78419 -75.00493 5546 ft 294 kts 45°
2026-05-04 15:42 39.79794 -74.98535 5250 ft 293 kts 45°
2026-05-04 15:42 39.81162 -74.96582 5002 ft 291 kts 45°
2026-05-04 15:43 39.82515 -74.94621 4793 ft 291 kts 50°
2026-05-04 15:43 39.83580 -74.92383 4583 ft 292 kts 66°
2026-05-04 15:43 39.84202 -74.89922 4377 ft 288 kts 76°
2026-05-04 15:43 39.84713 -74.87435 4214 ft 280 kts 75°
2026-05-04 15:44 39.85496 -74.85180 4095 ft 269 kts 52°
2026-05-04 15:44 39.86794 -74.83542 3989 ft 253 kts 28°
2026-05-04 15:44 39.88351 -74.82694 3996 ft 237 kts
2026-05-04 15:44 39.89950 -74.82593 3997 ft 227 kts 346°
2026-05-04 15:45 39.91434 -74.83168 4006 ft 220 kts 326°
2026-05-04 15:45 39.92652 -74.84288 4002 ft 212 kts 309°
2026-05-04 15:45 39.93527 -74.85792 4000 ft 207 kts 292°
2026-05-04 15:45 39.94009 -74.87529 4000 ft 202 kts 276°
2026-05-04 15:46 39.94019 -74.89331 3998 ft 198 kts 257°
2026-05-04 15:46 39.93683 -74.91080 4000 ft 200 kts 254°
2026-05-04 15:46 39.93340 -74.92835 4000 ft 200 kts 255°
2026-05-04 15:46 39.93009 -74.94526 3993 ft 186 kts 255°
2026-05-04 15:47 39.92693 -74.96136 3999 ft 182 kts 254°
2026-05-04 15:47 39.92379 -74.97731 3817 ft 181 kts 254°
2026-05-04 15:47 39.92068 -74.99312 3580 ft 179 kts 255°
2026-05-04 15:47 39.91759 -75.00881 3354 ft 179 kts 254°
2026-05-04 15:48 39.91450 -75.02447 3115 ft 178 kts 254°
2026-05-04 15:48 39.91145 -75.03997 2905 ft 174 kts 253°
2026-05-04 15:48 39.90565 -75.06938 2415 ft 156 kts 253°
2026-05-04 15:49 39.90307 -75.08247 2225 ft 143 kts 253°
2026-05-04 15:49 39.90066 -75.09465 2062 ft 137 kts 252°
2026-05-04 15:49 39.89831 -75.10650 1865 ft 135 kts 253°
2026-05-04 15:49 39.89602 -75.11809 1692 ft 133 kts 253°
2026-05-04 15:50 39.89372 -75.12967 1503 ft 132 kts 253°
2026-05-04 15:50 39.89145 -75.14113 1330 ft 131 kts 253°
2026-05-04 15:50 39.88914 -75.15275 1155 ft 131 kts 252°
2026-05-04 15:50 39.88689 -75.16409 969 ft 132 kts 251°
2026-05-04 15:51 39.88461 -75.17554 803 ft 129 kts 254°
2026-05-04 15:51 39.88236 -75.18698 641 ft 132 kts 253°
2026-05-04 15:51 39.88004 -75.19868 452 ft 131 kts 251°
2026-05-04 15:51 39.87773 -75.21030 267 ft 133 kts 256°
2026-05-04 15:52 39.87547 -75.22177 90 ft 130 kts 254°
2026-05-04 15:52 39.87321 -75.23299 30 ft 121 kts 252°
2026-05-04 15:52 39.87145 -75.24171 25 ft 75 kts 256°
2026-05-04 15:52 39.87053 -75.24641 25 ft 41 kts 256°
2026-05-04 15:53 39.86996 -75.24980 25 ft 35 kts 266°
2026-05-04 15:53 39.87033 -75.25191 30 ft 15 kts 305°
2026-05-04 15:53 39.87127 -75.25183 27 ft 16 kts 54°
2026-05-04 15:53 39.87161 -75.25035 27 ft 18 kts 75°
2026-05-04 15:54 39.87194 -75.24869 25 ft 20 kts 76°
2026-05-04 15:54 39.87230 -75.24687 25 ft 22 kts 74°
2026-05-04 15:54 39.87268 -75.24497 25 ft 21 kts 75°
2026-05-04 15:54 39.87291 -75.24375 29 ft 14 kts 75°
2026-05-04 15:55 39.87318 -75.24245 30 ft 16 kts 74°
2026-05-04 15:55 39.87348 -75.24100 28 ft 17 kts 75°
2026-05-04 15:55 39.87377 -75.23953 26 ft 14 kts 75°
2026-05-04 15:55 39.87451 -75.23912 29 ft 11 kts 341°
2026-05-04 15:56 39.87494 -75.23974 28 ft 6 kts 270°
2026-05-04 15:56 39.87495 -75.24016 25 ft 2 kts 271°
2026-05-04 15:56 39.87495 -75.24018 25 ft 0 kts 271°